Arcata, CA

11:29 PM PDT on August 22, 2017 (GMT -0700)
Arcata

Weather History for KACV - March, 2014

Change the Weather History Date:

Wednesday, March 19, 2014

  Actual Average Record
Temperature  
Mean Temperature 52 °F -  
Max Temperature 66 °F 54 °F 66 °F (1999)
Min Temperature 37 °F 40 °F 32 °F (2002)
Degree Days  
Heating Degree Days 14    
Growing Degree Days 2 (Base 50)    
Moisture  
Dew Point 42 °F    
Average Humidity 76    
Maximum Humidity 97    
Minimum Humidity 48    
Precipitation  
Precipitation 0.00 in - - ()
Sea Level Pressure  
Sea Level Pressure 30.15 in    
Wind  
Wind Speed 5 mph (NNE)    
Max Wind Speed 23 mph    
Max Gust Speed 29 mph    
Visibility 10 miles    
Events      
Averages and records for this station are not official NWS values.
T = Trace of Precipitation, MM = Missing Value Source: NWS Daily Summary

Daily Weather History Graph

Daily Weather History Graph

Search for Another Location

Airport or City:

Trip Planner

Search our weather history database for the weather conditions in past years. The results will help you decide how hot, cold, wet, or windy it might be!

Date:

Astronomy

Mar. 19, 2014 Rise Set
Actual Time 7:21 AM PDT 7:27 PM PDT
Civil Twilight 6:53 AM PDT 7:55 PM PDT
Nautical Twilight 6:21 AM PDT 8:27 PM PDT
Astronomical Twilight 5:49 AM PDT 8:59 PM PDT
Moon 10:53 PM PDT (3/19) 8:49 AM PDT (3/19)
Length of Visible Light 13h 01m
Length of Day
12h 06m
Waning Gibbous, 90% of the Moon is Illuminated
Mar 19
Waning Gibbous
Mar 23
Last Quarter
Mar 30
New
Apr 7
First Quarter
Apr 15
Full

Hourly Weather History & Observations

Time (PDT) Temp. Windchill Dew Point Humidity Pressure Visibility Wind Dir Wind Speed Gust Speed Precip Events Conditions
12:53 AM 43.0 °F 39.5 °F 39.0 °F 86% 30.06 in 10.0 mi East 5.8 mph - N/A   Clear
1:53 AM 39.9 °F 36.7 °F 37.9 °F 93% 30.07 in 10.0 mi ESE 4.6 mph - N/A   Clear
2:53 AM 43.0 °F 39.5 °F 39.9 °F 89% 30.08 in 10.0 mi East 5.8 mph - N/A   Clear
3:27 AM 39.9 °F - 37.0 °F 89% 30.07 in 10.0 mi Calm Calm - N/A   Mostly Cloudy
3:36 AM 41.0 °F 39.0 °F 37.9 °F 89% 30.07 in 10.0 mi East 3.5 mph - N/A   Mostly Cloudy
3:53 AM 41.0 °F 37.1 °F 37.9 °F 89% 30.08 in 10.0 mi ESE 5.8 mph - N/A   Overcast
4:29 AM 39.9 °F 37.8 °F 37.9 °F 93% 30.06 in 10.0 mi East 3.5 mph - N/A   Scattered Clouds
4:53 AM 37.9 °F - 37.0 °F 97% 30.09 in 10.0 mi Calm Calm - N/A   Clear
5:13 AM 39.0 °F - 36.0 °F 89% 30.07 in 10.0 mi Calm Calm - N/A   Scattered Clouds
5:24 AM 37.9 °F - 36.0 °F 93% 30.08 in 10.0 mi Calm Calm - N/A   Mostly Cloudy
5:53 AM 39.9 °F 36.7 °F 37.9 °F 93% 30.11 in 10.0 mi East 4.6 mph - N/A   Overcast
6:53 AM 42.1 °F 40.2 °F 39.9 °F 92% 30.12 in 10.0 mi ESE 3.5 mph - N/A   Overcast
7:53 AM 44.1 °F 41.5 °F 41.0 °F 89% 30.13 in 10.0 mi East 4.6 mph - N/A   Overcast
8:42 AM 45.0 °F 42.6 °F 42.1 °F 90% 30.12 in 10.0 mi East 4.6 mph - N/A   Scattered Clouds
8:53 AM 45.0 °F 42.6 °F 42.1 °F 90% 30.15 in 10.0 mi East 4.6 mph - N/A   Clear
9:09 AM 46.9 °F - 43.0 °F 86% 30.13 in 10.0 mi Calm Calm - N/A   Mostly Cloudy
9:53 AM 48.9 °F - 44.1 °F 83% 30.17 in 10.0 mi Calm Calm - N/A   Scattered Clouds
10:10 AM 53.1 °F - 44.1 °F 71% 30.16 in 10.0 mi Calm Calm - N/A   Scattered Clouds
10:21 AM 52.0 °F - 44.1 °F 74% 30.16 in 10.0 mi Calm Calm - N/A   Mostly Cloudy
10:53 AM - - - N/A% 30.17 in 10.0 mi Calm Calm - N/A   Mostly Cloudy
10:56 AM 51.1 °F - 44.1 °F 77% 30.17 in 10.0 mi NNW 5.8 mph - N/A   Mostly Cloudy
11:53 AM 51.1 °F - 44.1 °F 77% 30.21 in 10.0 mi WNW 5.8 mph - N/A   Overcast
12:10 PM 63.0 °F - 46.0 °F 54% 30.19 in 10.0 mi NW 6.9 mph - N/A   Mostly Cloudy
12:25 PM 66.0 °F - 46.0 °F 48% 30.19 in 10.0 mi NNW 8.1 mph - N/A   Partly Cloudy
12:53 PM 64.9 °F - 46.9 °F 52% 30.20 in 10.0 mi NW 11.5 mph - N/A   Partly Cloudy
1:16 PM 62.1 °F - 46.9 °F 58% 30.17 in 9.0 mi NNW 13.8 mph 23.0 mph N/A   Partly Cloudy
1:53 PM 61.0 °F - 46.0 °F 58% 30.18 in 10.0 mi NNW 13.8 mph 23.0 mph N/A   Clear
2:53 PM 61.0 °F - 46.0 °F 58% 30.17 in 9.0 mi NNW 18.4 mph - N/A   Clear
3:53 PM 60.1 °F - 46.0 °F 60% 30.17 in 9.0 mi NNW 23.0 mph 28.8 mph N/A   Clear
4:53 PM 61.0 °F - 45.0 °F 56% 30.19 in 9.0 mi NNW 15.0 mph - N/A   Clear
5:53 PM 60.1 °F - 43.0 °F 53% 30.21 in 10.0 mi NNW 13.8 mph - N/A   Clear
6:53 PM 55.9 °F - 43.0 °F 62% 30.21 in 10.0 mi North 10.4 mph - N/A   Clear
7:53 PM 55.0 °F - 42.1 °F 62% 30.22 in 10.0 mi North 8.1 mph - N/A   Clear
8:53 PM 57.0 °F - 42.1 °F 57% 30.22 in 7.0 mi NNW 9.2 mph - N/A   Clear
9:53 PM 50.0 °F - 42.1 °F 74% 30.22 in 10.0 mi NNE 4.6 mph - N/A   Clear
10:53 PM 46.9 °F - 39.9 °F 77% 30.21 in 9.0 mi NNE 3.5 mph - N/A   Clear
11:53 PM 46.0 °F 43.9 °F 39.9 °F 79% 30.23 in 10.0 mi NE 4.6 mph - N/A   Clear